Location: Four Corners
(38.2757°N, 122.4608°W)
Time: 23:21:11
(UTC+00:00)

Cosmos 1900 - Pass Details

Date: 08 December 2019
Orbit: 692 x 730 km, 66.1° (Epoch: 26 January)

Event Time Altitude Azimuth Distance (km) Brightness Sun altitude
Rises 02:42:22 0° 331° (NNW) 3,074 7.8 -21.6°
Reaches altitude 10° 02:44:42 10° 331° (NNW) 2,152 7.0 -22.0°
Maximum altitude 02:49:36 89° 57° (ENE) 697 4.2 -22.9°
Enters shadow 02:51:49 33° 151° (SSE) 1,155 5.2 -23.4°
